Weather in Silvassa

India     20°16′50″N   73°00′03″E
temp.,
°C
wind,
m/s
gust,
m/s
humid.,
%
clouds,
%
prec.,
mm/h
press.,
hPa
HPBL,
m
16 may, sun
sun1623:30+33se2335100 0.0 100079
02:30+33sse2235100 0.0 99939
05:30+30se235068 1.1 100075
08:30+34ese374386 0.1 10021396
11:30+37se71131100 0.2 10011925
14:30+36e61236100 0.0 9991726
17:30+35se61040100 0.9 998917
20:30+31ene51053100 1.3 1000731
17 may, mon
mon1723:30+31e71352100 1.4 10011472
02:30+30e81454100 0.3 9971094
05:30+30ese91557100 0.6 9971180
08:30+30se61261100 1.2 9991303
11:30+27se81677100 11.3 10011058
14:30+28sse91672100 0.5 9991405
17:30+28sse111968100 1.3 9991508
20:30+28sse112068100 0.1 10011527
18 may, tue
tue1823:30+28s112172100 0.1 10011444
02:30+28s112073100 0.0 9991428
05:30+28s101974100 0.2 10001408
08:30+30s111966100 1.3 10021629
11:30+32ssw12195882 3.8 10021845
14:30+32ssw121758100 1.9 10011734
17:30+30ssw91566100 2.2 10021451
20:30+29ssw81472100 0.1 10031157
19 may, wed
wed1923:30+28ssw81474100 0.5 10041167
02:30+28ssw101477100 2.2 10021014
05:30+28sw61174100 3.3 1003685
08:30+29sw8116799 2.4 10051016
11:30+33sw8115297 4.1 10051722
14:30+33sw9115021 0.1 10041709
17:30+31sw8106139 0.1 10041228
20:30+29sw697398 0.1 1005915
20 may, thu
thu2023:30+29ssw5977100 0.1 1006877
02:30+28ssw5978100 0.1 1005682
05:30+28sw488113 0.4 1005465
08:30+30sw57666 0.1 10071169
11:30+34wsw664910 0.2 10071677
14:30+34w6646100 0.0 10061613
17:30+32wsw55522 0.0 10051216
20:30+30sw45685 0.0 1007630